Flag for Switzerland Weather past 2 weeks in Stäfa, Zurich, Switzerland

Now
55 °F

Cool.


Feels Like: 55 °F
Forecast: 50 / 67 °F
Wind: 2 mph from East

Location: Zurich Town / Ville.


UV Index: 0 (Low)

Visibility: N/A


Pressure: 29.83 "Hg

Humidity: 69%

Dew point: 45 °F

Location of StäfaLocation

Historic Weather in Stäfa

°F

Stäfa temperature yesterday

Maximum temperature yesterday: 69 °F (at 4:00 PM)
Minimum temperature yesterday: 49 °F (at 7:00 AM)
Average temperature yesterday: 59 °F

Past Weeks' High & Low Weather Summary

 TemperatureHumidityPressure
High69 °F (Apr 24, 4:00 PM)97% (Apr 18, 7:00 PM)30.34 "Hg (Apr 18, 7:00 PM)
Low35 °F (Apr 18, 9:00 PM)25% (Apr 17, 4:00 PM)29.62 "Hg (Apr 20, 6:00 PM)
Average51 °F63%29.99 "Hg
* Reported Apr 10 9:00 AM — Apr 25 9:00 AM, Stäfa, Weather by CustomWeather, © 2014

Note: Actual official high and low records may vary slightly from our data, if they occured in-between our weather recording intervals... More about our weather records

Advertising

Historic Weather Conditions — Data for Previous 24 hours

 ConditionsComfort  
Time TempWeatherWind HumidityBarometerVisibility
9:00 AM
Apr 25
55 °FCool.2 mph69%29.83 "HgN/A
8:00 AM53 °FPassing clouds.No wind68%29.83 "Hg16 mi
7:00 AM50 °FCool.2 mph77%29.83 "HgN/A
6:00 AM50 °FCool.5 mph76%29.83 "HgN/A
5:00 AM51 °FCool.2 mph74%29.83 "HgN/A
4:00 AM52 °FCool.7 mph69%29.83 "HgN/A
3:00 AM53 °FCool.6 mph66%29.84 "HgN/A
2:00 AM55 °FCool.8 mph63%29.84 "HgN/A
1:00 AM57 °FRefreshingly cool.8 mph58%29.85 "HgN/A
12:00 AM58 °FRefreshingly cool.5 mph57%29.85 "HgN/A
11:00 PM
Apr 24
60 °FRefreshingly cool.7 mph52%29.85 "HgN/A
10:00 PM60 °FRefreshingly cool.6 mph53%29.87 "HgN/A
9:00 PM61 °FRefreshingly cool.5 mph52%29.87 "HgN/A
8:00 PM64 °FScattered clouds.1 mph48%29.86 "Hg19 mi
7:00 PM68 °FMild.6 mph39%29.85 "HgN/A
6:00 PM69 °FMild.7 mph35%29.86 "HgN/A
5:00 PM69 °FMild.6 mph38%29.88 "HgN/A
4:00 PM69 °FMild.6 mph45%29.90 "HgN/A
3:00 PM67 °FMild.5 mph47%29.93 "HgN/A
2:00 PM66 °FPassing clouds.3 mph49%29.96 "Hg12 mi
1:00 PM65 °FMild.3 mph50%29.99 "HgN/A
12:00 PM62 °FRefreshingly cool.2 mph58%30.03 "HgN/A
11:00 AM61 °FCool.2 mph61%30.05 "HgN/A
10:00 AM57 °FCool.2 mph66%30.07 "HgN/A
Weather by CustomWeather, © 2014

See weather overview